STARLINK-36074 (66900 NORAD) Tracking and Keplerian Element Data

This shows tracking and keplerian element data for the satellite.

Feedback or suggestion? Click here.




ElementValue
Catalog66900
NameSTARLINK-36074
Epoch Orbit363
Epoch Day354.25003472
Epoch Year2025
RAAN36.0556
Inclination53.1574
Eccentricity7.49E-05
Argument of Perigee82.1301
Mean Anonmoly184.0488
Mean Motion15.74280783
Decay Rate-0.00134287
L11 66900U 25283Y 25354.25003472 -.00134287 00000+0 -92361-3 0 9993
L22 66900 53.1574 36.0556 0000749 82.1301 184.0488 15.74280783 3638



Live tracking and technical data element details for STARLINK-36074 (NORAD 66900). STARLINK-36074 can be tracked NOW for your location showing map with azimuth and elevation plus other details from your city location.







IsCatalogInMostPopularTable: catalog: 66900, numindb: 11
Update: records affected: 1



GetName: 66900 STARLINK-36074

Hit Count: updated at: Tue, 10 Feb 2026 02:57:35 GMT